Location: Saint-Usage
(47.1052°N, 5.2587°E)
Time: 17:30:04
(UTC+02:00)

ISS - Pass Details

Date: 21 September 2021
Orbit: 417 x 423 km, 51.6° (Epoch: 16 October)

Event Time Altitude Azimuth Distance (km) Brightness Sun altitude
Rises 21:35:28 0° 268° (W) 2,360 1.2 -20.2°
Reaches altitude 10° 21:37:38 10° 276° (W) 1,499 0.1 -20.5°
Maximum altitude 21:40:51 42° 349° (N) 612 -2.7 -21.0°
Enters shadow 21:41:16 40° 11° (N) 637 -2.8 -21.1°
